{"data":{"norad_id":69188,"intl_designator":"2026-114G","name":"STARLINK-37359","alt_names":[],"object_type":"PAYLOAD","status":"ACTIVE","operator":null,"country":"US","launch_date":"2026-05-25","launch_site_code":"AFETR","launch_vehicle":null,"mission":null,"orbit_class":"UNKNOWN","rcs_meters":null,"size_class":null,"mass_kg":null,"dimensions":null,"purposes":["comms"],"wikipedia_slug":null,"has_3d_model":false,"image_url":null,"decayed_at":null,"tle_current":{"epoch":"2026-09-19T23:32:08.558304Z","epoch_age_seconds":71897,"freshness":"FRESH","line1":"1 69188U 26114G   26262.98065461  .00016106  00000+0  48677-3 0  9991","line2":"2 69188  53.1561 116.3553 0001550  85.5504 274.5676 15.34401436 19364","mean_motion":15.34401436,"eccentricity":0.000155,"inclination_deg":53.1561,"raan_deg":116.3553,"arg_perigee_deg":85.5504,"mean_anomaly_deg":274.5676,"bstar":0.00048677,"rev_number":1936,"period_min":93.84767025205,"perigee_km":461.63864254013,"apogee_km":463.75930169149,"semimajor_km":6840.8359721158,"source":"CELESTRAK","updated_at":"2026-09-20T09:00:44.096751Z"}}}